Starlink 11412

operational
NORAD ID: 63062 Int'l Des: 2025-035 Owner: SPXS Country: US Constellation: starlink
LEOCIRCULAR

Über Starlink 11412

Beschreibung wird geladen...

Live-Position

3D-Globus wird geladen...

Nächste Überflüge

Höhenverlauf

Altitude vs Time

uPlot chart will show altitude changes over time

Zweizeiliger Elementsatz

1 63062U 25035L 25305.07933543 .00363588 00000-0 26990-2 0 9992
2 63062 43.0007 70.5732 0000696 337.5107 22.5730 15.70979088 40999
Epoch: 1. Nov. 2025 • Age: 36 hours

Aktueller Status

Höhe 360.9 km
Geschwindigkeit 7.69 km/s
Subsatellitenpunkt -29.22°S, 26.91°E
Startdatum 21. Feb. 2025
Alter 0.6 years
Typ internet

Technische Details

Klassifizierung Payload
Masse 960.00 kg
Trockenmasse 910.00 kg
Gesamtmasse 960.00 kg
Länge 0.30 m
Durchmesser 4.10 m
Spannweite 29.00 m
Form Box + pan
Hersteller SPXS
Bus-Typ Starlink V2MD
Phasenstatus In Orbit
Besitzer/Staat SPXS/US

Große Konstellationen

Loading constellations...